STARLINK-32142 (60291 NORAD) Tracking and Keplerian Element Data

This shows tracking and keplerian element data for the satellite.

Feedback or suggestion? Click here.




ElementValue
Catalog60291
NameSTARLINK-32142
Epoch Orbit1302
Epoch Day286.70367896
Epoch Year2024
RAAN274.9367
Inclination53.1598
Eccentricity0.0001419
Argument of Perigee92.854
Mean Anonmoly267.2623
Mean Motion15.30202805
Decay Rate0.00011459
L11 60291U 24132P 24286.70367896 .00011459 00000+0 39840-3 0 9994
L22 60291 53.1598 274.9367 0001419 92.8540 267.2623 15.30202805 13022



Live tracking and technical data element details for STARLINK-32142 (NORAD 60291). STARLINK-32142 can be tracked NOW for your location showing map with azimuth and elevation plus other details from your city location.







IsCatalogInMostPopularTable: catalog: 60291, numindb: 12
Update: records affected: 1



GetName: 60291 STARLINK-32142

Hit Count: updated at: Thu, 23 Jan 2025 18:20:17 GMT